AirNav   Everest Fuels
 
 746 users online  

9OR1 Shaniko Ranch Airport
Shaniko, Oregon, USA

GOING TO SHANIKO?


FAA INFORMATION EFFECTIVE 05 DECEMBER 2019

Location

FAA Identifier: 9OR1
Lat/Long: 45-00-10.4510N 120-44-23.1570W
45-00.174183N 120-44.385950W
45.0029031,-120.7397658
(estimated)
Elevation: 3300 ft. / 1006 m (estimated)
Variation: 18E (1990)
Time zone: UTC -8 (UTC -7 during Daylight Saving Time)
Zip code: 97001

Airport Operations

Airport use: Private use. Permission required prior to landing
Activation date: 01/1992
Control tower: no
ARTCC: SEATTLE CENTER
FSS: MC MINNVILLE FLIGHT SERVICE STATION
Attendance: UNATNDD
Wind indicator: yes
Segmented circle: no

Airport Services

Runway Information

Runway 11/29

Dimensions: 3100 x 80 ft. / 945 x 24 m
Surface: turf
RUNWAY 11  RUNWAY 29
Traffic pattern: leftleft

Airport Ownership and Management from official FAA records

Ownership: Privately-owned
Owner: DON WHITAKER
P.O. BOX 40
ROSEBURG, OR 97470
Phone 503-459-4602
Manager: DON WHITAKER
P.O. BOX 40
ROSEBURG, OR 97470
Phone 503-673-0419

Additional Remarks

FOR CD CTC SEATTLE ARTCC AT 253-351-3694.

Instrument Procedures

There are no published instrument procedures at 9OR1.

Some nearby airports with instrument procedures:

S33 - Madras Municipal Airport (27 nm SW)
KDLS - Columbia Gorge Regional/The Dalles Municipal Airport (41 nm NW)
S39 - Prineville Airport (43 nm S)
KRDM - Roberts Field Airport (48 nm S)
9S9 - Lexington Airport (52 nm NE)
 
Loc | Ops | Rwys | IFR | FBO | Links
Com | Nav | Svcs | Stats | Notes
Area around 9OR1 (Shaniko Ranch Airport)
 
Road maps at: MapQuest Bing Google
 
Aerial photo
WARNING: Photo may not be current or correct
Aerial photo of 9OR1 (Shaniko Ranch Airport)
Do you have a better or more recent aerial photo of Shaniko Ranch Airport that you would like to share? If so, please send us your photo.

 
Sectional chart

 
Airport distance calculator
Flying to Shaniko Ranch Airport? Find the distance to fly.

From to 9OR1

Sunrise and sunset
Times for 05-Dec-2019
 Local
(UTC-8)
 Zulu
(UTC)
Morning civil twilight06:5314:53
Sunrise07:2615:26
Sunset16:2100:21
Evening civil twilight16:5400:54

Current date and time
Zulu (UTC)  06-Dec-2019 07:11:21
Local (UTC-8)  05-Dec-2019 23:11:21
 
METAR
KS33 
27nm SW 
060655Z AUTO 00000KT 7SM CLR M02/M03 A3007 RMK AO2
KDLS 
41nm NW 
060653Z AUTO 07003KT 7SM OVC011 03/01 A3014 RMK AO2 SLP209 T00330011
KS39 
43nm S 
060655Z AUTO 10SM CLR 03/00 A3007 RMK AO2
KRDM 
48nm S 
060656Z AUTO 12006KT 10SM SCT046 03/00 A3004 RMK AO2 SLP182 T00330000
TAF
KDLS 
41nm NW 
060536Z 0606/0706 VRB02KT 6SM BR OVC012 FM061300 VRB03KT 4SM BR OVC007 FM061800 15003KT 6SM BR OVC015 FM070400 13003KT 6SM BR SCT012 OVC050 PROB30 0704/0706 6SM -RA
KRDM 
48nm S 
060536Z 0606/0706 16006KT P6SM SCT150 BKN200 FM062100 18007G11KT P6SM BKN150 OVC200 FM070200 17006KT P6SM SCT060 OVC100
NOTAMs
Click for the latest NOTAMs
NOTAMs are issued by the DoD/FAA and will open in a separate window not controlled by AirNav.

 

 
 

Would you like to see your business listed on this page?

 If your business provides an interesting product or service to pilots, flight crews, aircraft, or users of the Shaniko Ranch Airport, you should consider listing it here.  To start the listing process, click on the button below
 
Add a business
 

Other Pages about Shaniko Ranch Airport

Update a link
 
Copyright © AirNav, LLC. All rights reserved. Privacy Policy  Contact